Phoenix Deer Valley, AZ

10:24 PM MST on December 07, 2019 (GMT -0700)
Phoenix-Deer Valley Municipal

Weather History for KDVT - September, 2019

Change the Weather History Date:

Tuesday, September 17, 2019

  Actual Average Record
Temperature  
Mean Temperature 83 °F -  
Max Temperature 93 °F 94 °F 104 °F (2000)
Min Temperature 73 °F 73 °F 64 °F (2005)
Cooling Degree Days 18    
Growing Degree Days 33 (Base 50)    
Moisture  
Dew Point 57 °F    
Average Humidity 41    
Maximum Humidity 57    
Minimum Humidity 29    
Precipitation  
Precipitation 0.00 in - - ()
Sea Level Pressure  
Sea Level Pressure 29.83 in    
Wind  
Wind Speed 4 mph ()    
Max Wind Speed 15 mph    
Max Gust Speed -    
Visibility 10.0 miles    
Events      
Averages and records for this station are not official NWS values.
T = Trace of Precipitation, MM = Missing Value Source: Averaged Metar Reports

Daily Weather History Graph

Daily Weather History Graph

Search for Another Location

Airport or City:

Astronomy

Sep. 17, 2019 Rise Set
Actual Time 6:12 AM MST 6:32 PM MST
Civil Twilight 5:47 AM MST 6:57 PM MST
Nautical Twilight 5:18 AM MST 7:26 PM MST
Astronomical Twilight 4:49 AM MST 7:55 PM MST
Moon 8:46 PM MST (9/17) 9:13 AM MST (9/17)
Length of Visible Light 13h 09m
Length of Day
12h 19m
Waning Gibbous, 88% of the Moon is Illuminated
Sep 17
Waning Gibbous
Sep 21
Last Quarter
Sep 28
New
Oct 5
First Quarter
Oct 13
Full

Hourly Weather History & Observations

Time (MST) Temp. Heat Index Dew Point Humidity Pressure Visibility Wind Dir Wind Speed Gust Speed Precip Events Conditions
12:53 AM 78.1 °F - 57.9 °F 50% 29.83 in 10.0 mi ESE 5.8 mph - N/A   Clear
1:53 AM 77.0 °F - 57.9 °F 52% 29.85 in 10.0 mi ENE 4.6 mph - N/A   Clear
2:53 AM 75.9 °F - 57.9 °F 54% 29.85 in 10.0 mi Calm Calm - N/A   Clear
3:53 AM 75.0 °F - 57.0 °F 53% 29.84 in 10.0 mi Calm Calm - N/A   Clear
4:53 AM 73.9 °F - 57.0 °F 55% 29.85 in 10.0 mi ENE 4.6 mph - N/A   Clear
5:53 AM 73.0 °F - 57.0 °F 57% 29.86 in 10.0 mi Calm Calm - N/A   Clear
6:53 AM 75.9 °F - 57.0 °F 52% 29.88 in 10.0 mi East 3.5 mph - N/A   Clear
7:53 AM 78.1 °F - 57.9 °F 50% 29.90 in 10.0 mi East 3.5 mph - N/A   Clear
8:53 AM 80.1 °F 80.6 °F 57.9 °F 47% 29.90 in 10.0 mi Variable 4.6 mph - N/A   Clear
9:53 AM 82.9 °F 82.4 °F 57.0 °F 41% 29.91 in 10.0 mi SSE 8.1 mph - N/A   Clear
10:53 AM 87.1 °F 86.1 °F 57.9 °F 37% 29.88 in 10.0 mi South 10.4 mph - N/A   Clear
11:53 AM 89.1 °F 88.2 °F 59.0 °F 36% 29.86 in 10.0 mi SW 6.9 mph - N/A   Clear
12:53 PM 90.0 °F 89.1 °F 59.0 °F 35% 29.85 in 10.0 mi WSW 10.4 mph - N/A   Clear
1:53 PM 91.9 °F 90.8 °F 57.9 °F 32% 29.82 in 10.0 mi SW 9.2 mph - N/A   Clear
2:53 PM 91.9 °F 90.0 °F 55.0 °F 29% 29.80 in 10.0 mi WSW 5.8 mph - N/A   Clear
3:53 PM 93.0 °F 91.4 °F 55.9 °F 29% 29.78 in 10.0 mi Variable 4.6 mph - N/A   Clear
4:53 PM 93.0 °F 91.4 °F 55.9 °F 29% 29.77 in 10.0 mi SW 15.0 mph - N/A   Clear
5:53 PM 91.9 °F 90.6 °F 57.0 °F 31% 29.77 in 10.0 mi SW 6.9 mph - N/A   Clear
6:53 PM 91.0 °F 89.7 °F 57.0 °F 32% 29.76 in 10.0 mi SW 4.6 mph - N/A   Clear
7:53 PM 89.1 °F 87.7 °F 57.0 °F 34% 29.77 in 10.0 mi ESE 3.5 mph - N/A   Clear
8:53 PM 88.0 °F 86.7 °F 57.0 °F 35% 29.77 in 10.0 mi East 5.8 mph - N/A   Clear
9:53 PM 86.0 °F 84.7 °F 55.9 °F 36% 29.78 in 10.0 mi East 5.8 mph - N/A   Clear
10:53 PM 84.9 °F 83.7 °F 55.9 °F 37% 29.77 in 10.0 mi East 4.6 mph - N/A   Clear
11:53 PM 82.0 °F 81.7 °F 57.0 °F 42% 29.78 in 10.0 mi North 5.8 mph - N/A   Clear